[[{"header":{"parameterUnit":"m.s-1","parameterCategory":1,"la1":30.2991,"la2":30.254,"lo1":-89.0895,"lo2":-89.0444,"dy":0.0017,"dx":0.0017,"nx":28,"ny":28,"refTime":"2024-06-26T21:00:00:Z","depth":0,"parameterNumber":2,"parameterNumberName":"U-component_of_WINDS"},"data":[0,0,0,0,0,0,0,0,0,0,0,0,0,0,0,0,0,0,0,0,0,0,0,0,0,0,0,0,0,0,0,0,0,0,0,0,0,0,0,0,0,0,0,0,0,0,0,0,0,0,0,0,0,0,0,0,0,0,3.3705,3.3706,0,3.3853,3.3854,3.3856,3.3923,3.3923,3.3923,3.3923,3.4077,3.4081,3.4085,0,0,0,0,0,0,0,0,0,0,0,0,0,3.3485,3.3489,3.3705,3.3706,3.3708,3.3852,3.3854,3.3856,3.3923,3.3923,3.3923,3.3922,3.4075,3.408,3.4085,0,0,0,0,0,0,0,0,0,0,0,0,0,3.3602,3.349,3.3704,3.3759,3.3765,3.3852,3.3854,3.3857,3.3923,3.3923,3.3923,3.3922,3.4074,3.408,3.4086,3.413,0,0,3.4106,3.4108,0,0,0,0,0,0,0,0,3.3595,3.361,3.3749,3.3755,3.3762,3.3869,3.3834,3.3949,3.3923,3.3863,3.3923,3.3922,3.4008,3.402,3.4048,3.4138,3.4144,3.4106,3.411,3.4113,3.4115,0,0,0,0,0,0,0,3.3587,3.3604,3.3763,3.3751,3.3759,3.3778,3.3794,3.3856,3.3935,3.3868,3.3874,3.389,3.4012,3.4042,3.4052,3.4147,3.4106,3.4112,3.4116,3.4118,3.4285,3.4285,0,0,0,0,0,0,3.3569,3.3596,3.3759,3.3768,3.3676,3.3782,3.38,3.3835,3.3935,3.395,3.389,3.3893,3.4031,3.4045,3.4058,3.4118,3.4113,3.4119,3.4122,3.4284,3.4285,3.4285,0,0,0,0,0,0,3.3564,3.3583,3.3753,3.3684,3.3707,3.3786,3.3825,3.3838,3.3868,3.3951,3.3966,3.3906,3.4031,3.4049,3.4113,3.4125,3.4122,3.4127,3.4283,3.4284,3.4285,3.4238,0,0,0,0,0,0,3.3558,3.3581,3.3597,3.3683,3.371,3.3803,3.3825,3.3841,3.3879,3.3883,3.397,3.3984,3.4032,3.4103,3.4119,3.4133,3.4132,3.4283,3.4284,3.4285,3.4239,3.4237,3.4236,0,0,0,0,0,3.355,3.3577,3.3597,3.3616,3.3731,3.3803,3.3818,3.3873,3.3879,3.3897,3.3951,3.3981,3.4121,3.4109,3.4128,3.4144,3.4282,3.4283,3.4285,3.424,3.4238,3.4236,0,0,0,0,0,0,3.3489,3.3589,3.3612,3.3669,3.3727,3.3814,3.3838,3.3869,3.3927,3.3929,3.3995,3.4014,3.4073,3.4115,3.41,3.4195,3.4205,3.421,3.4164,3.4163,3.4161,3.4149,3.4138,0,0,0,0,0,3.3483,3.3531,3.3617,3.3658,3.3686,3.3757,3.379,3.3828,3.3891,3.3916,3.3975,3.4036,3.4095,3.4131,3.4189,3.4247,3.4268,3.4268,3.4266,3.4264,3.4268,3.4304,3.4306,3.429,3.429,3.429,0,0,3.3469,3.353,3.3556,3.3648,3.3697,3.3748,3.3777,3.3829,3.3868,3.3924,3.3988,3.4034,3.4107,3.4169,3.4199,3.4206,3.4278,3.4266,3.4264,3.4269,3.4306,3.4307,3.4309,3.4291,3.4291,3.429,0,0,3.347,3.352,3.3561,3.3611,3.3686,3.3734,3.3744,3.3828,3.3861,3.3926,3.397,3.4019,3.4117,3.4169,3.4208,3.4234,3.4265,3.4251,3.4243,3.4278,3.4279,3.428,3.4291,3.4294,3.4255,3.4255,3.4255,0,3.3443,3.352,3.3579,3.3629,3.3669,3.3724,3.3768,3.3814,3.3904,3.3932,3.3939,3.4066,3.4119,3.4194,3.4201,3.4231,3.4246,3.424,3.4274,3.4276,3.4278,3.4289,3.4293,3.4253,3.4253,3.4253,3.4253,0,3.3485,3.3538,3.3563,3.3649,3.3693,3.3739,3.3807,3.3845,3.388,3.3928,3.3996,3.4063,3.4136,3.4158,3.4192,3.424,3.4242,3.4261,3.4272,3.4277,3.4288,3.4293,3.425,3.425,3.4251,3.4251,0,0,3.3447,3.3569,3.3577,3.3619,3.3708,3.3751,3.3803,3.3875,3.3906,3.3969,3.4014,3.4099,3.4118,3.4162,3.4204,3.4235,3.4254,3.425,3.4253,3.4249,3.4313,3.4297,3.4301,3.4276,3.4277,3.4277,3.4307,0,3.3461,3.3553,3.361,3.368,3.3732,3.3787,3.3833,3.3894,3.3941,3.3994,3.4047,3.4106,3.4126,3.4154,3.4187,3.4244,3.4267,3.4243,3.432,3.4322,3.4299,3.4307,3.429,3.4314,3.4312,3.4312,3.4313,0,3.3487,3.3549,3.3624,3.3711,3.3735,3.3774,3.3847,3.3896,3.3968,3.4001,3.4053,3.4096,3.4155,3.4163,3.4247,3.423,3.4266,3.4299,3.4302,3.431,3.4317,3.4315,3.4323,3.4326,3.432,3.432,3.4319,0,3.3454,3.3556,3.3615,3.3649,3.3751,3.3778,3.3823,3.3895,3.3936,3.4001,3.4029,3.4099,3.4138,3.4193,3.4255,3.4255,3.4334,3.4347,3.4365,3.4363,3.4377,3.4375,3.439,3.4401,3.4401,3.4401,3.4401,0,3.3462,3.3506,3.3601,3.3637,3.369,3.3757,3.3808,3.3857,3.3922,3.397,3.4024,3.4068,3.4148,3.4204,3.4253,3.4316,3.4334,3.4363,3.4376,3.4358,3.4354,3.4381,3.4381,3.4402,3.4402,3.4401,3.4401,0,3.3432,3.3497,3.3566,3.3659,3.3684,3.3718,3.3799,3.3838,3.389,3.3951,3.3969,3.4051,3.412,3.4188,3.428,3.4314,3.4377,3.4394,3.4352,3.4359,3.4373,3.437,3.4405,3.4414,3.4418,3.4418,3.4418,0,3.3432,3.3468,3.3566,3.3602,3.3645,3.3703,3.3746,3.3815,3.3858,3.3945,3.3974,3.4047,3.4108,3.4216,3.4285,3.4357,3.4376,3.4384,3.4387,3.437,3.4377,3.4374,3.4379,3.4381,3.4381,3.438,3.438,0,3.3426,3.3458,3.3517,3.3589,3.3639,3.3699,3.3761,3.3788,3.387,3.3916,3.3987,3.4035,3.413,3.4203,3.4284,3.4332,3.4371,3.4379,3.4387,3.4368,3.4343,3.4358,3.4346,3.4377,3.4378,3.4378,3.4378,3.4378,3.3412,3.3447,3.3522,3.3588,3.3642,3.37,3.3742,3.38,3.386,3.3943,3.3981,3.4053,3.4129,3.4242,3.429,3.4349,3.4359,3.437,3.4373,3.4374,3.4371,3.4335,3.4364,3.4364,3.4364,3.4365,3.4365,0,3.3409,3.3461,3.3521,3.3607,3.3659,3.3691,3.3763,3.3805,3.3867,3.3935,3.3995,3.4079,3.415,3.4226,3.4303,3.4336,3.4356,3.4354,3.4352,3.4363,3.4357,3.4343,3.4337,3.4337,3.4337,3.4337,3.4337,3.4337,3.3414,3.3476,3.3517,3.3609,3.3661,3.3731,3.377,3.3825,3.3879,3.397,3.4029,3.4079,3.4151,3.4234,3.4303,3.4324,3.435,3.4343,3.4369,3.4361,3.4363,3.4365,3.4351,3.4348,3.4348,3.437,3.437,3.437]},{"header":{"parameterUnit":"m.s-1","parameterCategory":1,"la1":30.2991,"la2":30.254,"lo1":-89.0895,"lo2":-89.0444,"dy":0.0017,"dx":0.0017,"nx":28,"ny":28,"refTime":"2024-06-26T21:00:00:Z","depth":0,"parameterNumber":3,"parameterNumberName":"V-component_of_WINDS"},"data":[0,0,0,0,0,0,0,0,0,0,0,0,0,0,0,0,0,0,0,0,0,0,0,0,0,0,0,0,0,0,0,0,0,0,0,0,0,0,0,0,0,0,0,0,0,0,0,0,0,0,0,0,0,0,0,0,0,0,5.1506,5.1508,0,5.1698,5.17,5.1702,5.1745,5.1744,5.1742,5.1741,5.1931,5.1937,5.1943,0,0,0,0,0,0,0,0,0,0,0,0,0,5.1171,5.1177,5.1506,5.1508,5.1511,5.1697,5.17,5.1703,5.1745,5.1744,5.1742,5.174,5.1929,5.1936,5.1944,0,0,0,0,0,0,0,0,0,0,0,0,0,5.1335,5.1179,5.1506,5.1555,5.1561,5.1697,5.17,5.1703,5.1746,5.1744,5.1742,5.174,5.1926,5.1935,5.1945,5.2043,0,0,5.1973,5.1978,0,0,0,0,0,0,0,0,5.1326,5.1347,5.1545,5.1552,5.1559,5.1696,5.1652,5.1817,5.1746,5.1675,5.1741,5.1739,5.1854,5.1869,5.1909,5.2052,5.206,5.1974,5.198,5.1984,5.1987,0,0,0,0,0,0,0,5.1314,5.1339,5.1582,5.1548,5.1556,5.1565,5.1586,5.1683,5.1773,5.1681,5.1685,5.1707,5.1857,5.19,5.1914,5.2063,5.1974,5.1982,5.1988,5.1992,5.2298,5.23,0,0,0,0,0,0,5.1295,5.1329,5.1576,5.1587,5.1435,5.1573,5.1597,5.1654,5.1772,5.1789,5.1709,5.1709,5.1885,5.1903,5.1921,5.2046,5.1984,5.1993,5.1998,5.2295,5.2298,5.2301,0,0,0,0,0,0,5.1288,5.1317,5.1568,5.146,5.1492,5.1581,5.1645,5.1658,5.1702,5.1793,5.1809,5.1737,5.1884,5.1907,5.2013,5.2053,5.1997,5.2006,5.2292,5.2296,5.2299,5.2295,0,0,0,0,0,0,5.1278,5.1314,5.1353,5.146,5.1498,5.1659,5.1647,5.1664,5.1719,5.172,5.1823,5.1838,5.1884,5.1999,5.2023,5.2065,5.2013,5.2289,5.2294,5.2298,5.2292,5.2298,5.2303,0,0,0,0,0,5.1266,5.1342,5.1355,5.1385,5.155,5.1661,5.1682,5.1735,5.1721,5.1761,5.182,5.1835,5.2044,5.2009,5.2036,5.2082,5.2287,5.2293,5.2298,5.2289,5.2297,5.2303,0,0,0,0,0,0,5.1235,5.1357,5.1373,5.1487,5.1564,5.1668,5.172,5.1741,5.1822,5.1819,5.1879,5.1902,5.2005,5.2053,5.2013,5.2184,5.2165,5.2176,5.2149,5.2157,5.2162,5.2149,5.2021,0,0,0,0,0,5.1242,5.1324,5.1426,5.1516,5.1554,5.1631,5.1681,5.1715,5.1796,5.1828,5.1895,5.1971,5.2055,5.2108,5.2189,5.2298,5.2322,5.2343,5.2348,5.2353,5.2362,5.2425,5.2436,5.2319,5.2319,5.2319,0,0,5.1256,5.1333,5.1381,5.1512,5.1576,5.1659,5.1657,5.1744,5.1806,5.1841,5.1947,5.1998,5.2087,5.2195,5.2246,5.2239,5.2399,5.236,5.2362,5.237,5.2432,5.2443,5.2452,5.2323,5.2322,5.2321,0,0,5.1325,5.1391,5.1475,5.154,5.1637,5.1688,5.1707,5.181,5.1846,5.1953,5.1982,5.2055,5.2196,5.2259,5.231,5.2404,5.2421,5.2428,5.2458,5.2518,5.2528,5.2536,5.2571,5.2583,5.2437,5.2437,5.2437,0,5.133,5.1458,5.1515,5.1602,5.1659,5.1697,5.1782,5.1841,5.1958,5.1996,5.1987,5.2167,5.2229,5.2354,5.2377,5.2416,5.244,5.2417,5.2522,5.2531,5.254,5.2574,5.2587,5.2437,5.2437,5.2437,5.2437,0,5.146,5.1548,5.1604,5.172,5.1783,5.1868,5.1937,5.1993,5.2022,5.2073,5.2181,5.2258,5.2356,5.2388,5.2415,5.2517,5.251,5.251,5.2493,5.255,5.2584,5.2597,5.2438,5.2438,5.2438,5.2437,0,0,5.1515,5.1663,5.1683,5.1737,5.1848,5.1916,5.2002,5.2102,5.215,5.2229,5.2303,5.2423,5.2425,5.2482,5.2517,5.257,5.2642,5.2564,5.2567,5.2578,5.276,5.276,5.2775,5.2653,5.2656,5.2658,5.2753,0,5.1599,5.1758,5.1812,5.1943,5.2026,5.2063,5.2139,5.2214,5.2264,5.234,5.2393,5.2478,5.2473,5.2509,5.2563,5.2621,5.2679,5.2615,5.2722,5.2726,5.2701,5.2792,5.2792,5.2878,5.2766,5.2768,5.277,0,5.1718,5.1803,5.1943,5.2046,5.2083,5.215,5.2246,5.2318,5.2404,5.2436,5.2501,5.2533,5.2623,5.2599,5.2725,5.2681,5.2727,5.2763,5.2767,5.2781,5.2752,5.2809,5.2907,5.2921,5.2791,5.2789,5.2787,0,5.1746,5.1895,5.2,5.2044,5.2166,5.2212,5.2265,5.2349,5.2405,5.2488,5.2525,5.2616,5.2666,5.2735,5.279,5.2767,5.2912,5.2892,5.2941,5.294,5.2971,5.2969,5.308,5.2998,5.2998,5.2997,5.2997,0,5.1835,5.192,5.2015,5.2079,5.2175,5.2235,5.2328,5.2382,5.2456,5.2531,5.2567,5.2635,5.2703,5.278,5.2822,5.2921,5.2943,5.2971,5.2982,5.2969,5.2966,5.3002,5.2998,5.3001,5.3,5.3,5.2999,0,5.1884,5.195,5.2067,5.2173,5.2202,5.2268,5.2358,5.2421,5.2473,5.2566,5.2591,5.2672,5.2765,5.2826,5.2943,5.2972,5.308,5.3088,5.3052,5.3058,5.3105,5.31,5.3244,5.3267,5.3168,5.3169,5.3169,0,5.1937,5.2004,5.2118,5.2172,5.2226,5.2311,5.237,5.2432,5.2491,5.2595,5.2645,5.2741,5.2821,5.2967,5.3035,5.3125,5.3137,5.3181,5.315,5.3136,5.314,5.3136,5.3144,5.3186,5.3187,5.3188,5.3188,0,5.2025,5.2056,5.214,5.2238,5.2308,5.2386,5.2464,5.2506,5.2581,5.2645,5.2742,5.2805,5.2926,5.3021,5.3118,5.3169,5.3192,5.3197,5.3214,5.3203,5.318,5.3195,5.3068,5.3194,5.3193,5.3193,5.3192,5.3192,5.2079,5.2141,5.2233,5.2326,5.2393,5.2466,5.2531,5.2592,5.2675,5.2781,5.2811,5.2912,5.2996,5.313,5.3183,5.3262,5.3257,5.3281,5.3287,5.3293,5.3294,5.3166,5.3279,5.3279,5.3279,5.3279,5.3279,0,5.2171,5.2233,5.2318,5.2429,5.2502,5.2519,5.2607,5.2667,5.2757,5.2835,5.2914,5.3025,5.3118,5.3193,5.3288,5.3337,5.3349,5.336,5.3358,5.337,5.3292,5.3269,5.3348,5.3348,5.3348,5.3348,5.3348,5.3348,5.2228,5.2335,5.2376,5.2515,5.2575,5.2677,5.2726,5.2794,5.2857,5.2981,5.3059,5.3109,5.3186,5.3287,5.3372,5.3392,5.3426,5.3434,5.3456,5.3382,5.3375,5.3368,5.3347,5.3441,5.3441,5.3528,5.3529,5.353]}]]